| time (UTC) | temp F | wind direction | speed MPH | gust MPH | rain 1hr in | rain 24hr in | rain mn in | humidity % | barometer mb |
| 20260904164541 | 56 | 127 | 0.0 | 1.0 | 0.00 | 0.12 | 0.05 | 96 | 1014.3 |
| 20260904163050 | 56 | 127 | 0.0 | 1.0 | 0.00 | 0.12 | 0.05 | 96 | 1014.2 |
| 20260904161543 | 56 | 127 | 0.0 | 0.0 | 0.00 | 0.12 | 0.05 | 96 | 1014.1 |
| 20260904160038 | 55 | 127 | 2.0 | 3.0 | 0.01 | 0.12 | 0.05 | 96 | 1014.1 |
| 20260904154533 | 55 | 156 | 0.0 | 0.0 | 0.02 | 0.12 | 0.05 | 96 | 1013.9 |
| 20260904153052 | 54 | 156 | 0.0 | 0.0 | 0.03 | 0.12 | 0.05 | 96 | 1013.7 |
| 20260904151537 | 54 | 157 | 0.0 | 0.0 | 0.03 | 0.12 | 0.05 | 96 | 1013.6 |
| 20260904150034 | 54 | 156 | 1.0 | 2.0 | 0.02 | 0.11 | 0.04 | 96 | 1013.4 |
| 20260904144526 | 54 | 157 | 0.0 | 0.0 | 0.01 | 0.11 | 0.03 | 96 | 1013.4 |
| 20260904143025 | 53 | 157 | 0.0 | 2.0 | 0.00 | 0.10 | 0.02 | 96 | 1013.2 |
| 20260904141524 | 53 | 157 | 1.0 | 2.0 | 0.00 | 0.10 | 0.02 | 95 | 1013.1 |
| 20260904140023 | 53 | 157 | 0.0 | 0.0 | 0.00 | 0.10 | 0.02 | 95 | 1012.9 |
| 20260904134523 | 53 | 157 | 0.0 | 1.0 | 0.01 | 0.12 | 0.02 | 95 | 1012.7 |
| 20260904133019 | 53 | 157 | 1.0 | 2.0 | 0.01 | 0.12 | 0.02 | 95 | 1012.7 |
| 20260904131517 | 54 | 157 | 1.0 | 3.0 | 0.01 | 0.12 | 0.02 | 95 | 1012.5 |
| 20260904130016 | 53 | 157 | 0.0 | 3.0 | 0.01 | 0.12 | 0.02 | 95 | 1012.4 |
| 20260904124514 | 53 | 150 | 1.0 | 3.0 | 0.00 | 0.16 | 0.01 | 95 | 1012.3 |
| 20260904123014 | 53 | 150 | 0.0 | 0.0 | 0.00 | 0.16 | 0.01 | 95 | 1012.2 |
| 20260904121512 | 54 | 150 | 0.0 | 2.0 | 0.00 | 0.16 | 0.01 | 95 | 1012.2 |
| 20260904120015 | 53 | 150 | 1.0 | 2.0 | 0.00 | 0.16 | 0.01 | 95 | 1012.1 |
| 20260904114509 | 53 | 150 | 2.0 | 5.0 | 0.00 | 0.16 | 0.01 | 95 | 1012.0 |
| 20260904113009 | 53 | 148 | 0.0 | 0.0 | 0.00 | 0.16 | 0.01 | 95 | 1011.9 |
| 20260904111507 | 53 | 148 | 0.0 | 0.0 | 0.00 | 0.16 | 0.01 | 95 | 1011.8 |
| 20260904110006 | 53 | 148 | 0.0 | 1.0 | 0.00 | 0.16 | 0.01 | 95 | 1011.8 |
| 20260904104505 | 53 | 148 | 1.0 | 2.0 | 0.00 | 0.16 | 0.01 | 95 | 1011.7 |
| 20260904103003 | 53 | 148 | 2.0 | 3.0 | 0.00 | 0.16 | 0.01 | 94 | 1011.6 |
| 20260904101505 | 53 | 150 | 0.0 | 3.0 | 0.00 | 0.16 | 0.01 | 94 | 1011.4 |
| 20260904100001 | 53 | 150 | 2.0 | 4.0 | 0.00 | 0.16 | 0.01 | 94 | 1011.4 |
| 20260904094600 | 53 | 152 | 2.0 | 6.0 | 0.00 | 0.16 | 0.01 | 94 | 1011.3 |
| 20260904093059 | 53 | 155 | 2.0 | 3.0 | 0.00 | 0.16 | 0.01 | 93 | 1011.3 |
| 20260904091558 | 54 | 154 | 2.0 | 5.0 | 0.00 | 0.16 | 0.01 | 93 | 1011.3 |
| 20260904090058 | 54 | 158 | 2.0 | 3.0 | 0.00 | 0.16 | 0.01 | 93 | 1011.4 |
| 20260904084600 | 54 | 159 | 1.0 | 5.0 | 0.00 | 0.16 | 0.01 | 93 | 1011.3 |
| 20260904083054 | 54 | 159 | 0.0 | 1.0 | 0.01 | 0.16 | 0.01 | 93 | 1011.2 |
| 20260904081553 | 54 | 159 | 1.0 | 3.0 | 0.01 | 0.16 | 0.01 | 93 | 1011.2 |
| 20260904080113 | 55 | 159 | 1.0 | 5.0 | 0.01 | 0.16 | 0.01 | 93 | 1011.3 |
| 20260904074549 | 55 | 155 | 3.0 | 7.0 | 0.01 | 0.16 | 0.01 | 93 | 1011.4 |
| 20260904073048 | 55 | 118 | 5.0 | 8.0 | 0.00 | 0.15 | 0.00 | 93 | 1011.4 |
| 20260904071546 | 55 | 123 | 6.0 | 9.0 | 0.01 | 0.15 | 0.00 | 92 | 1011.4 |
| 20260904070053 | 55 | 130 | 6.0 | 11.0 | 0.01 | 0.15 | 0.00 | 92 | 1011.3 |
| 20260904064543 | 55 | 121 | 5.0 | 9.0 | 0.01 | 0.15 | 0.15 | 92 | 1011.4 |
| 20260904063106 | 55 | 126 | 4.0 | 7.0 | 0.01 | 0.15 | 0.15 | 92 | 1011.4 |
| 20260904061541 | 55 | 143 | 2.0 | 4.0 | 0.00 | 0.14 | 0.14 | 91 | 1011.3 |
| 20260904060048 | 55 | 132 | 1.0 | 4.0 | 0.00 | 0.14 | 0.14 | 91 | 1011.2 |
| 20260904054546 | 55 | 134 | 4.0 | 7.0 | 0.00 | 0.14 | 0.14 | 91 | 1011.1 |
| 20260904053053 | 55 | 146 | 3.0 | 7.0 | 0.00 | 0.14 | 0.14 | 91 | 1011.0 |
| 20260904051540 | 55 | 150 | 4.0 | 8.0 | 0.00 | 0.14 | 0.14 | 91 | 1011.1 |
| 20260904050039 | 56 | 124 | 5.0 | 9.0 | 0.00 | 0.14 | 0.14 | 92 | 1011.1 |
| 20260904044540 | 56 | 129 | 5.0 | 10.0 | 0.00 | 0.14 | 0.14 | 92 | 1011.3 |
| 20260904043049 | 57 | 161 | 3.0 | 5.0 | 0.00 | 0.14 | 0.14 | 91 | 1011.2 |
| 20260904041536 | 57 | 163 | 3.0 | 5.0 | 0.00 | 0.14 | 0.14 | 91 | 1011.1 |
| 20260904040036 | 57 | 164 | 3.0 | 5.0 | 0.00 | 0.14 | 0.14 | 91 | 1011.1 |
| 20260904034534 | 57 | 165 | 3.0 | 6.0 | 0.00 | 0.14 | 0.14 | 91 | 1010.9 |
| 20260904033034 | 57 | 161 | 5.0 | 8.0 | 0.00 | 0.14 | 0.14 | 91 | 1010.8 |
| 20260904031531 | 58 | 156 | 3.0 | 7.0 | 0.01 | 0.14 | 0.14 | 90 | 1010.6 |
| 20260904030050 | 58 | 154 | 3.0 | 6.0 | 0.04 | 0.14 | 0.14 | 89 | 1010.6 |
| 20260904024530 | 59 | 186 | 3.0 | 5.0 | 0.06 | 0.14 | 0.14 | 86 | 1010.7 |
| 20260904023030 | 60 | 254 | 2.0 | 4.0 | 0.06 | 0.14 | 0.14 | 80 | 1010.7 |
| 20260904021534 | 63 | 272 | 0.0 | 3.0 | 0.05 | 0.13 | 0.13 | 77 | 1010.6 |
| 20260904020027 | 64 | 268 | 2.0 | 6.0 | 0.02 | 0.10 | 0.10 | 71 | 1010.5 |
| 20260904014526 | 65 | 311 | 1.0 | 5.0 | 0.00 | 0.09 | 0.08 | 66 | 1010.4 |
| 20260904013025 | 65 | 287 | 1.0 | 8.0 | 0.00 | 0.09 | 0.08 | 66 | 1010.4 |
| 20260904011525 | 65 | 314 | 3.0 | 7.0 | 0.00 | 0.09 | 0.08 | 66 | 1010.4 |
| 20260904010024 | 65 | 269 | 3.0 | 9.0 | 0.00 | 0.09 | 0.08 | 65 | 1010.3 |
| 20260904004526 | 66 | 271 | 5.0 | 12.0 | 0.00 | 0.13 | 0.08 | 65 | 1010.2 |
| 20260904003023 | 66 | 256 | 7.0 | 13.0 | 0.00 | 0.13 | 0.08 | 68 | 1010.1 |
| 20260904001520 | 67 | 242 | 11.0 | 19.0 | 0.00 | 0.13 | 0.08 | 66 | 1010.1 |
| 20260904000020 | 68 | 272 | 8.0 | 16.0 | 0.00 | 0.13 | 0.08 | 64 | 1010.2 |
| 20260903234518 | 71 | 317 | 6.0 | 14.0 | 0.00 | 0.13 | 0.08 | 58 | 1010.0 |
| 20260903233029 | 71 | 10 | 2.0 | 6.0 | 0.00 | 0.13 | 0.08 | 56 | 1010.0 |
| 20260903231517 | 69 | 360 | 2.0 | 5.0 | 0.00 | 0.13 | 0.08 | 60 | 1009.8 |
| 20260903230009 | 68 | 33 | 4.0 | 8.0 | 0.00 | 0.13 | 0.08 | 65 | 1009.9 |
| 20260903224504 | 66 | 298 | 2.0 | 6.0 | 0.00 | 0.20 | 0.08 | 68 | 1010.0 |
| 20260903223004 | 66 | 286 | 4.0 | 9.0 | 0.00 | 0.20 | 0.08 | 65 | 1010.0 |
| 20260903221501 | 65 | 278 | 4.0 | 10.0 | 0.00 | 0.20 | 0.08 | 66 | 1010.1 |
| 20260903220059 | 65 | 283 | 5.0 | 10.0 | 0.00 | 0.20 | 0.08 | 71 | 1010.0 |
| 20260903214605 | 64 | 261 | 4.0 | 9.0 | 0.00 | 0.24 | 0.08 | 73 | 1010.0 |
| 20260903213056 | 64 | 276 | 6.0 | 12.0 | 0.00 | 0.24 | 0.08 | 70 | 1010.1 |
| 20260903211556 | 64 | 306 | 4.0 | 12.0 | 0.00 | 0.24 | 0.08 | 71 | 1010.1 |
| 20260903210134 | 64 | 258 | 8.0 | 13.0 | 0.00 | 0.24 | 0.08 | 73 | 1010.0 |
| 20260903204602 | 64 | 252 | 4.0 | 9.0 | 0.00 | 0.27 | 0.08 | 75 | 1010.1 |
| 20260903203052 | 64 | 296 | 3.0 | 8.0 | 0.00 | 0.27 | 0.08 | 76 | 1010.0 |
| 20260903201549 | 63 | 312 | 2.0 | 8.0 | 0.00 | 0.27 | 0.08 | 76 | 1010.0 |
| 20260903200055 | 63 | 283 | 5.0 | 10.0 | 0.00 | 0.27 | 0.08 | 78 | 1010.1 |
| 20260903194540 | 62 | 292 | 2.0 | 9.0 | 0.00 | 0.27 | 0.08 | 74 | 1010.1 |
| 20260903193038 | 62 | 248 | 3.0 | 8.0 | 0.00 | 0.27 | 0.08 | 75 | 1010.1 |
| 20260903191537 | 61 | 265 | 5.0 | 11.0 | 0.00 | 0.27 | 0.08 | 73 | 1010.0 |
| 20260903190038 | 61 | 182 | 5.0 | 10.0 | 0.00 | 0.27 | 0.08 | 76 | 1010.1 |
| 20260903184534 | 61 | 287 | 6.0 | 12.0 | 0.00 | 0.27 | 0.08 | 77 | 1010.1 |
| 20260903183030 | 60 | 198 | 1.0 | 10.0 | 0.00 | 0.27 | 0.08 | 80 | 1010.0 |
| 20260903181527 | 59 | 171 | 6.0 | 11.0 | 0.00 | 0.27 | 0.08 | 81 | 1010.0 |
| 20260903180024 | 58 | 173 | 7.0 | 11.0 | 0.00 | 0.27 | 0.08 | 84 | 1009.9 |
| 20260903174522 | 58 | 140 | 4.0 | 11.0 | 0.00 | 0.27 | 0.08 | 86 | 1009.9 |
| 20260903173020 | 57 | 163 | 3.0 | 8.0 | 0.00 | 0.27 | 0.08 | 89 | 1009.8 |
| 20260903171518 | 57 | 178 | 6.0 | 12.0 | 0.00 | 0.27 | 0.08 | 90 | 1009.7 |
| 20260903170025 | 57 | 155 | 3.0 | 9.0 | 0.00 | 0.27 | 0.08 | 93 | 1009.7 |